[TLELIST] Archives

 

[list_settings.list_name] Current TLEs

August 1st 2021 PST

HST 1 20580U 90037B 21213.14777144 .00000601 00000-0 25364-4 0 9999 2 20580 28.4697 129.3386 0002744 180.5027 316.5365 15.09694417518026 ISS (ZARYA) 1 25544U 98067A 21213.47511809 -.00005027 00000-0 -83626-4 0 9999 2 25544 51.6441 118.7731 0001112 226.4321 303.3835 15.48855972295618 CXO 1 25867U 99040B 21215.71111934 .00000378 00000-0 00000+0 0 9995 2 25867 53.9655 253.3152 8397908 226.7303 0.2802 0.37804517 21753 ____________________________________________________________________ These 2-Line ...Continue Reading

[list_settings.list_name] Current TLEs

July 31st 2021 PST

HST 1 20580U 90037B 21211.49989939 .00000634 00000-0 27374-4 0 9991 2 20580 28.4695 140.2425 0002804 163.1511 0.1167 15.09693121517770 ISS (ZARYA) 1 25544U 98067A 21212.30049829 .00005256 00000-0 10398-3 0 9995 2 25544 51.6430 124.5801 0001390 220.3682 235.5802 15.48861065295430 CXO 1 25867U 99040B 21213.06745505 .00000276 00000-0 00000-0 0 9996 2 25867 54.0273 253.4240 8393011 226.6988 0.4254 0.37804077 10616 ____________________________________________________________________ These 2-Line ...Continue Reading

[list_settings.list_name] Current TLEs

July 30th 2021 PST

HST 1 20580U 90037B 21210.17364920 .00000628 00000-0 27002-4 0 9993 2 20580 28.4693 149.0185 0002857 149.3781 351.5711 15.09691895517326 ISS (ZARYA) 1 25544U 98067A 21211.11452309 .00000429 00000-0 15987-4 0 9991 2 25544 51.6433 130.4443 0001206 216.9557 101.7962 15.48866931295246 CXO 1 25867U 99040B 21213.06745505 .00000276 00000-0 00000-0 0 9996 2 25867 54.0273 253.4240 8393011 226.6988 0.4254 0.37804077 10616 ____________________________________________________________________ These 2-Line ...Continue Reading

[list_settings.list_name] Current TLEs

July 29th 2021 PST

HST 1 20580U 90037B 21210.17364920 .00000628 00000-0 27002-4 0 9993 2 20580 28.4693 149.0185 0002857 149.3781 351.5711 15.09691895517573 ISS (ZARYA) 1 25544U 98067A 21210.30942291 .00001068 00000-0 27632-4 0 9995 2 25544 51.6437 134.4261 0001388 210.7922 295.8294 15.48867448295125 CXO 1 25867U 99040B 21210.42334973 .00000251 00000-0 00000+0 0 9998 2 25867 54.0750 253.5143 8386826 226.6879 0.4833 0.37803590 21731 ____________________________________________________________________ These 2-Line ...Continue Reading

[list_settings.list_name] Current TLEs

July 28th 2021 PST

HST 1 20580U 90037B 21208.59107459 .00000608 00000-0 25784-4 0 9991 2 20580 28.4691 159.4907 0002894 133.1157 29.6651 15.09690373517337 ISS (ZARYA) 1 25544U 98067A 21209.27487523 -.00000447 00000-0 00000+0 0 9997 2 25544 51.6446 139.5449 0001372 203.3526 290.9078 15.48864796294960 CXO 1 25867U 99040B 21210.42334973 .00000251 00000-0 00000+0 0 9998 2 25867 54.0750 253.5143 8386826 226.6879 0.4833 0.37803590 21731 ____________________________________________________________________ These 2-Line ...Continue Reading

[list_settings.list_name] Current TLEs

July 27th 2021 PST

HST 1 20580U 90037B 21207.59958228 .00000622 00000-0 26608-4 0 9990 2 20580 28.4690 166.0517 0002916 123.0705 40.3811 15.09689550516937 ISS (ZARYA) 1 25544U 98067A 21208.17980969 -.00000447 00000-0 00000+0 0 9997 2 25544 51.6430 144.9602 0001621 199.7803 304.4707 15.48856848294797 CXO 1 25867U 99040B 21210.42334973 .00000251 00000-0 00000+0 0 9998 2 25867 54.0750 253.5143 8386826 226.6879 0.4833 0.37803590 21731 ____________________________________________________________________ These 2-Line ...Continue Reading

[list_settings.list_name] Current TLEs

July 26th 2021 PST

HST 1 20580U 90037B 21206.60790260 .00000636 00000-0 27467-4 0 9990 2 20580 28.4689 172.6141 0002938 112.9423 50.1625 15.09688724516786 ISS (ZARYA) 1 25544U 98067A 21207.21215938 .00002838 00000-0 59904-4 0 9995 2 25544 51.6425 149.7400 0001282 199.9245 305.2594 15.48867083294645 CXO 1 25867U 99040B 21205.13499689 .00000322 00000-0 00000-0 0 9996 2 25867 54.1612 253.6947 8377316 226.6916 0.4512 0.37808395 10581 ____________________________________________________________________ These 2-Line ...Continue Reading

[list_settings.list_name] Current TLEs

July 25th 2021 PST

HST 1 20580U 90037B 21205.34922046 .00000637 00000-0 27551-4 0 9994 2 20580 28.4688 180.9431 0002953 100.4577 48.3016 15.09687655516592 ISS (ZARYA) 1 25544U 98067A 21206.23328995 .00003594 00000-0 73688-4 0 9999 2 25544 51.6420 154.5803 0001343 192.4774 251.0228 15.48863435294496 CXO 1 25867U 99040B 21205.13499689 .00000322 00000-0 00000-0 0 9996 2 25867 54.1612 253.6947 8377316 226.6916 0.4512 0.37808395 10581 ____________________________________________________________________ These 2-Line ...Continue Reading

[list_settings.list_name] Current TLEs

July 24th 2021 PST

HST 1 20580U 90037B 21204.69074503 .00000628 00000-0 27008-4 0 9994 2 20580 28.4688 185.3004 0002955 93.7981 69.1352 15.09687094516492 ISS (ZARYA) 1 25544U 98067A 21205.14308635 .00003613 00000-0 74050-4 0 9993 2 25544 51.6420 159.9722 0001383 191.3419 289.2907 15.48855062294329 CXO 1 25867U 99040B 21205.13499689 .00000322 00000-0 00000-0 0 9996 2 25867 54.1612 253.6947 8377316 226.6916 0.4512 0.37808395 10581 ____________________________________________________________________ These 2-Line ...Continue Reading

[list_settings.list_name] Current TLEs

July 23rd 2021 PST

HST 1 20580U 90037B 21203.69912064 .00000599 00000-0 25267-4 0 9998 2 20580 28.4688 191.8623 0002951 83.8811 79.0166 15.09686229516592 ISS (ZARYA) 1 25544U 98067A 21203.40407588 .00003453 00000-0 71172-4 0 9991 2 25544 51.6423 168.5744 0001475 184.3976 313.3642 15.48839820294053 CXO 1 25867U 99040B 21205.13499689 .00000322 00000-0 00000-0 0 9996 2 25867 54.1612 253.6947 8377316 226.6916 0.4512 0.37808395 10581 ____________________________________________________________________ These 2-Line ...Continue Reading
  • This mailing list is a public mailing list - anyone may join or leave, at any time.
  • This mailing list is announce-only.

International Space Station (ISS) / Hubble Space Telescope (HST) / Chandra X-Ray Observatory Orbital Data via EMAIL

Privacy Policy:

Private list